,Coso Junction,Coso Junction
,PM10_1HR,PM10_1HR
,UG/M3,UG/M3
Date,Value,Null Code
01-Feb-2024 00:00,37.1,
01-Feb-2024 01:00,0.9,
01-Feb-2024 02:00,3.5,
01-Feb-2024 03:00,8.9,
01-Feb-2024 04:00,8.5,
01-Feb-2024 05:00,3.8,
01-Feb-2024 06:00,5.7,
01-Feb-2024 07:00,4.6,
01-Feb-2024 08:00,4.6,
01-Feb-2024 09:00,5.3,
01-Feb-2024 10:00,3.6,
01-Feb-2024 11:00,3.7,
01-Feb-2024 12:00,3.2,
01-Feb-2024 13:00,4,
01-Feb-2024 14:00,4.2,
01-Feb-2024 15:00,7.2,
01-Feb-2024 16:00,4.5,
01-Feb-2024 17:00,5.3,
01-Feb-2024 18:00,6,
01-Feb-2024 19:00,6.7,
01-Feb-2024 20:00,3.3,
01-Feb-2024 21:00,3.2,
01-Feb-2024 22:00,4.3,
01-Feb-2024 23:00,3.3,
02-Feb-2024 00:00,3.3,
02-Feb-2024 01:00,2.6,
02-Feb-2024 02:00,4.5,
02-Feb-2024 03:00,5.4,
02-Feb-2024 04:00,4.1,
02-Feb-2024 05:00,4.6,
02-Feb-2024 06:00,6.2,
02-Feb-2024 07:00,5,
02-Feb-2024 08:00,4.1,
02-Feb-2024 09:00,3.5,
02-Feb-2024 10:00,-1.1,
02-Feb-2024 11:00,-2.4,
02-Feb-2024 12:00,-0.2,
02-Feb-2024 13:00,1.7,
02-Feb-2024 14:00,2.3,
02-Feb-2024 15:00,3.5,
02-Feb-2024 16:00,10,
02-Feb-2024 17:00,7.9,
02-Feb-2024 18:00,7.4,
02-Feb-2024 19:00,4.8,
02-Feb-2024 20:00,4.9,
02-Feb-2024 21:00,1.1,
02-Feb-2024 22:00,2.5,
02-Feb-2024 23:00,5.8,
03-Feb-2024 00:00,3.2,
03-Feb-2024 01:00,5.8,
03-Feb-2024 02:00,4.2,
03-Feb-2024 03:00,5.1,
03-Feb-2024 04:00,4,
03-Feb-2024 05:00,4.4,
03-Feb-2024 06:00,7,
03-Feb-2024 07:00,4.2,
03-Feb-2024 08:00,8.8,
03-Feb-2024 09:00,0.7,
03-Feb-2024 10:00,-3.1,
03-Feb-2024 11:00,1.5,
03-Feb-2024 12:00,2,
03-Feb-2024 13:00,3.9,
03-Feb-2024 14:00,3.3,
03-Feb-2024 15:00,4.4,
03-Feb-2024 16:00,9.8,
03-Feb-2024 17:00,14.1,
03-Feb-2024 18:00,8.2,
03-Feb-2024 19:00,6.4,
03-Feb-2024 20:00,5.2,
03-Feb-2024 21:00,4.8,
03-Feb-2024 22:00,6.7,
03-Feb-2024 23:00,3.4,
04-Feb-2024 00:00,5.7,
04-Feb-2024 01:00,5.1,
04-Feb-2024 02:00,2.7,
04-Feb-2024 03:00,2.3,
04-Feb-2024 04:00,4,
04-Feb-2024 05:00,2.8,
04-Feb-2024 06:00,4.6,
04-Feb-2024 07:00,3.7,
04-Feb-2024 08:00,2.1,
04-Feb-2024 09:00,3.8,
04-Feb-2024 10:00,3.7,
04-Feb-2024 11:00,-2.3,
04-Feb-2024 12:00,0.9,
04-Feb-2024 13:00,2.5,
04-Feb-2024 14:00,3.5,
04-Feb-2024 15:00,4,
04-Feb-2024 16:00,5.8,
04-Feb-2024 17:00,4.6,
04-Feb-2024 18:00,5.9,
04-Feb-2024 19:00,5.1,
04-Feb-2024 20:00,5.7,
04-Feb-2024 21:00,4,
04-Feb-2024 22:00,3.6,
04-Feb-2024 23:00,3.5,
05-Feb-2024 00:00,3.1,
05-Feb-2024 01:00,3.8,
05-Feb-2024 02:00,2.3,
05-Feb-2024 03:00,3.7,
05-Feb-2024 04:00,3.6,
05-Feb-2024 05:00,3.8,
05-Feb-2024 06:00,4.4,
05-Feb-2024 07:00,6.5,
05-Feb-2024 08:00,4.7,
05-Feb-2024 09:00,2.3,
05-Feb-2024 10:00,1.6,
05-Feb-2024 11:00,1.7,
05-Feb-2024 12:00,1.4,
05-Feb-2024 13:00,3.3,
05-Feb-2024 14:00,2.4,
05-Feb-2024 15:00,5.6,
05-Feb-2024 16:00,1.5,
05-Feb-2024 17:00,2.1,
05-Feb-2024 18:00,3.6,
05-Feb-2024 19:00,0.5,
05-Feb-2024 20:00,4.2,
05-Feb-2024 21:00,2.2,
05-Feb-2024 22:00,1.1,
05-Feb-2024 23:00,2.5,
06-Feb-2024 00:00,2,
06-Feb-2024 01:00,1,
06-Feb-2024 02:00,0.3,
06-Feb-2024 03:00,2.6,
06-Feb-2024 04:00,0.8,
06-Feb-2024 05:00,2.2,
06-Feb-2024 06:00,3.8,
06-Feb-2024 07:00,2.5,
06-Feb-2024 08:00,,AZ
06-Feb-2024 09:00,,AZ
06-Feb-2024 10:00,,BA
06-Feb-2024 11:00,,BA
06-Feb-2024 12:00,,BA
06-Feb-2024 13:00,,BA
06-Feb-2024 14:00,,BA
06-Feb-2024 15:00,,BA
06-Feb-2024 16:00,,BA
06-Feb-2024 17:00,2.4,
06-Feb-2024 18:00,3.3,
06-Feb-2024 19:00,2.2,
06-Feb-2024 20:00,2.5,
06-Feb-2024 21:00,1.6,
06-Feb-2024 22:00,1.4,
06-Feb-2024 23:00,1.6,
07-Feb-2024 00:00,2.2,
07-Feb-2024 01:00,3.5,
07-Feb-2024 02:00,2.2,
07-Feb-2024 03:00,2.7,
07-Feb-2024 04:00,5.6,
07-Feb-2024 05:00,3.9,
07-Feb-2024 06:00,3.2,
07-Feb-2024 07:00,2.1,
07-Feb-2024 08:00,3,
07-Feb-2024 09:00,,AZ
07-Feb-2024 10:00,,AZ
07-Feb-2024 11:00,,BA
07-Feb-2024 12:00,,BA
07-Feb-2024 13:00,,BA
07-Feb-2024 14:00,6.6,
07-Feb-2024 15:00,5.2,
07-Feb-2024 16:00,4.7,
07-Feb-2024 17:00,7.1,
07-Feb-2024 18:00,6.8,
07-Feb-2024 19:00,7.2,
07-Feb-2024 20:00,1.5,
07-Feb-2024 21:00,0.7,
07-Feb-2024 22:00,2.4,
07-Feb-2024 23:00,1.1,
08-Feb-2024 00:00,0.6,
08-Feb-2024 01:00,1.7,
08-Feb-2024 02:00,3.9,
08-Feb-2024 03:00,4,
08-Feb-2024 04:00,5.4,
08-Feb-2024 05:00,5.2,
08-Feb-2024 06:00,6.7,
08-Feb-2024 07:00,5.7,
08-Feb-2024 08:00,3.8,
08-Feb-2024 09:00,3.7,
08-Feb-2024 10:00,0.5,
08-Feb-2024 11:00,-0.8,
08-Feb-2024 12:00,3.5,
08-Feb-2024 13:00,3.5,
08-Feb-2024 14:00,3.6,
08-Feb-2024 15:00,4.1,
08-Feb-2024 16:00,6.2,
08-Feb-2024 17:00,13.6,
08-Feb-2024 18:00,6.6,
08-Feb-2024 19:00,4.7,
08-Feb-2024 20:00,3.7,
08-Feb-2024 21:00,4.5,
08-Feb-2024 22:00,6.2,
08-Feb-2024 23:00,4.1,
09-Feb-2024 00:00,3.6,
09-Feb-2024 01:00,3.4,
09-Feb-2024 02:00,2.6,
09-Feb-2024 03:00,2.5,
09-Feb-2024 04:00,9.3,
09-Feb-2024 05:00,4.4,
09-Feb-2024 06:00,3.4,
09-Feb-2024 07:00,3.6,
09-Feb-2024 08:00,2.7,
09-Feb-2024 09:00,0.4,
09-Feb-2024 10:00,-1.5,
09-Feb-2024 11:00,2.9,
09-Feb-2024 12:00,3.9,
09-Feb-2024 13:00,2.1,
09-Feb-2024 14:00,3.3,
09-Feb-2024 15:00,6.6,
09-Feb-2024 16:00,6.3,
09-Feb-2024 17:00,9.6,
09-Feb-2024 18:00,8.9,
09-Feb-2024 19:00,6.2,
09-Feb-2024 20:00,3.3,
09-Feb-2024 21:00,4,
09-Feb-2024 22:00,5.1,
09-Feb-2024 23:00,4.2,
10-Feb-2024 00:00,5.1,
10-Feb-2024 01:00,11,
10-Feb-2024 02:00,15.3,
10-Feb-2024 03:00,12.6,
10-Feb-2024 04:00,7.2,
10-Feb-2024 05:00,10.9,
10-Feb-2024 06:00,10.5,
10-Feb-2024 07:00,10.3,
10-Feb-2024 08:00,10.5,
10-Feb-2024 09:00,7.4,
10-Feb-2024 10:00,9.3,
10-Feb-2024 11:00,3.8,
10-Feb-2024 12:00,2.5,
10-Feb-2024 13:00,0.7,
10-Feb-2024 14:00,2.9,
10-Feb-2024 15:00,3.8,
10-Feb-2024 16:00,7.2,
10-Feb-2024 17:00,13,
10-Feb-2024 18:00,5.3,
10-Feb-2024 19:00,5.2,
10-Feb-2024 20:00,4.7,
10-Feb-2024 21:00,5.9,
10-Feb-2024 22:00,3.8,
10-Feb-2024 23:00,3,
11-Feb-2024 00:00,4.4,
11-Feb-2024 01:00,4.1,
11-Feb-2024 02:00,4.1,
11-Feb-2024 03:00,4.2,
11-Feb-2024 04:00,5.8,
11-Feb-2024 05:00,4.1,
11-Feb-2024 06:00,5.1,
11-Feb-2024 07:00,4.4,
11-Feb-2024 08:00,6.3,
11-Feb-2024 09:00,0.5,
11-Feb-2024 10:00,0.5,
11-Feb-2024 11:00,-0.8,
11-Feb-2024 12:00,1.4,
11-Feb-2024 13:00,2.8,
11-Feb-2024 14:00,3.9,
11-Feb-2024 15:00,4.5,
11-Feb-2024 16:00,7.3,
11-Feb-2024 17:00,13.6,
11-Feb-2024 18:00,11.6,
11-Feb-2024 19:00,4.4,
11-Feb-2024 20:00,5.2,
11-Feb-2024 21:00,4.4,
11-Feb-2024 22:00,4.4,
11-Feb-2024 23:00,3.9,
12-Feb-2024 00:00,5.3,
12-Feb-2024 01:00,2.8,
12-Feb-2024 02:00,2.7,
12-Feb-2024 03:00,3.1,
12-Feb-2024 04:00,3.8,
12-Feb-2024 05:00,3.7,
12-Feb-2024 06:00,5,
12-Feb-2024 07:00,4.2,
12-Feb-2024 08:00,3.6,
12-Feb-2024 09:00,2.9,
12-Feb-2024 10:00,0.7,
12-Feb-2024 11:00,-0.9,
12-Feb-2024 12:00,2.1,
12-Feb-2024 13:00,4.2,
12-Feb-2024 14:00,10.6,
12-Feb-2024 15:00,7.9,
12-Feb-2024 16:00,6.9,
12-Feb-2024 17:00,12.8,
12-Feb-2024 18:00,11,
12-Feb-2024 19:00,9,
12-Feb-2024 20:00,4.5,
12-Feb-2024 21:00,4.8,
12-Feb-2024 22:00,4.8,
12-Feb-2024 23:00,20.8,
13-Feb-2024 00:00,6.4,
13-Feb-2024 01:00,6.2,
13-Feb-2024 02:00,3.3,
13-Feb-2024 03:00,5.1,
13-Feb-2024 04:00,4.9,
13-Feb-2024 05:00,7,
13-Feb-2024 06:00,14.9,
13-Feb-2024 07:00,2.9,
13-Feb-2024 08:00,4.5,
13-Feb-2024 09:00,1.2,
13-Feb-2024 10:00,0,
13-Feb-2024 11:00,3,
13-Feb-2024 12:00,4.3,
13-Feb-2024 13:00,6.9,
13-Feb-2024 14:00,9.6,
13-Feb-2024 15:00,13.9,
13-Feb-2024 16:00,10.6,
13-Feb-2024 17:00,23,
13-Feb-2024 18:00,13,
13-Feb-2024 19:00,7.7,
13-Feb-2024 20:00,5.7,
13-Feb-2024 21:00,4.5,
13-Feb-2024 22:00,6.6,
13-Feb-2024 23:00,7.6,
14-Feb-2024 00:00,5.1,
14-Feb-2024 01:00,6.3,
14-Feb-2024 02:00,5.1,
14-Feb-2024 03:00,4.6,
14-Feb-2024 04:00,5.9,
14-Feb-2024 05:00,9.6,
14-Feb-2024 06:00,12.9,
14-Feb-2024 07:00,8,
14-Feb-2024 08:00,5.5,
14-Feb-2024 09:00,3,
14-Feb-2024 10:00,4.2,
14-Feb-2024 11:00,3.6,
14-Feb-2024 12:00,7.8,
14-Feb-2024 13:00,7.8,
14-Feb-2024 14:00,18.4,
14-Feb-2024 15:00,19.5,
14-Feb-2024 16:00,10.4,
14-Feb-2024 17:00,16.1,
14-Feb-2024 18:00,16.1,
14-Feb-2024 19:00,13.9,
14-Feb-2024 20:00,9.6,
14-Feb-2024 21:00,6.4,
14-Feb-2024 22:00,11.2,
14-Feb-2024 23:00,7.4,
15-Feb-2024 00:00,8.2,
15-Feb-2024 01:00,15.1,
15-Feb-2024 02:00,14,
15-Feb-2024 03:00,6.1,
15-Feb-2024 04:00,5.1,
15-Feb-2024 05:00,8.4,
15-Feb-2024 06:00,15.5,
15-Feb-2024 07:00,6.1,
15-Feb-2024 08:00,,BL
15-Feb-2024 09:00,,BL
15-Feb-2024 10:00,,BL
15-Feb-2024 11:00,,BL
15-Feb-2024 12:00,0.7,
15-Feb-2024 13:00,2.7,
15-Feb-2024 14:00,5.1,
15-Feb-2024 15:00,9,
15-Feb-2024 16:00,21.9,
15-Feb-2024 17:00,14.1,
15-Feb-2024 18:00,11.7,
15-Feb-2024 19:00,8.5,
15-Feb-2024 20:00,5.3,
15-Feb-2024 21:00,5.5,
15-Feb-2024 22:00,4.9,
15-Feb-2024 23:00,4,
16-Feb-2024 00:00,7.6,
16-Feb-2024 01:00,4.4,
16-Feb-2024 02:00,4.5,
16-Feb-2024 03:00,3.5,
16-Feb-2024 04:00,5.3,
16-Feb-2024 05:00,4.4,
16-Feb-2024 06:00,3.4,
16-Feb-2024 07:00,5.6,
16-Feb-2024 08:00,4.5,
16-Feb-2024 09:00,2.5,
16-Feb-2024 10:00,0.9,
16-Feb-2024 11:00,0,
16-Feb-2024 12:00,2,
16-Feb-2024 13:00,3.2,
16-Feb-2024 14:00,3,
16-Feb-2024 15:00,8.3,
16-Feb-2024 16:00,9.2,
16-Feb-2024 17:00,9.5,
16-Feb-2024 18:00,12,
16-Feb-2024 19:00,11,
16-Feb-2024 20:00,7.4,
16-Feb-2024 21:00,4.8,
16-Feb-2024 22:00,5.1,
16-Feb-2024 23:00,10.5,
17-Feb-2024 00:00,5.2,
17-Feb-2024 01:00,2.8,
17-Feb-2024 02:00,2.7,
17-Feb-2024 03:00,6.1,
17-Feb-2024 04:00,5.4,
17-Feb-2024 05:00,4.2,
17-Feb-2024 06:00,4.9,
17-Feb-2024 07:00,6.2,
17-Feb-2024 08:00,5.9,
17-Feb-2024 09:00,1.6,
17-Feb-2024 10:00,2.3,
17-Feb-2024 11:00,3.3,
17-Feb-2024 12:00,5.3,
17-Feb-2024 13:00,5.9,
17-Feb-2024 14:00,8.1,
17-Feb-2024 15:00,9.8,
17-Feb-2024 16:00,12.6,
17-Feb-2024 17:00,22.4,
17-Feb-2024 18:00,22.1,
17-Feb-2024 19:00,19.5,
17-Feb-2024 20:00,36.4,
17-Feb-2024 21:00,9.2,
17-Feb-2024 22:00,8.4,
17-Feb-2024 23:00,12.3,
18-Feb-2024 00:00,8.1,
18-Feb-2024 01:00,7.5,
18-Feb-2024 02:00,4.3,
18-Feb-2024 03:00,2.2,
18-Feb-2024 04:00,5.5,
18-Feb-2024 05:00,4.1,
18-Feb-2024 06:00,5.4,
18-Feb-2024 07:00,6.6,
18-Feb-2024 08:00,1.8,
18-Feb-2024 09:00,0.8,
18-Feb-2024 10:00,1.9,
18-Feb-2024 11:00,2.2,
18-Feb-2024 12:00,3.4,
18-Feb-2024 13:00,2.8,
18-Feb-2024 14:00,3.5,
18-Feb-2024 15:00,5.5,
18-Feb-2024 16:00,7.8,
18-Feb-2024 17:00,7.5,
18-Feb-2024 18:00,8.7,
18-Feb-2024 19:00,10.2,
18-Feb-2024 20:00,9,
18-Feb-2024 21:00,9.2,
18-Feb-2024 22:00,10.7,
18-Feb-2024 23:00,6.2,
19-Feb-2024 00:00,4.2,
19-Feb-2024 01:00,3.9,
19-Feb-2024 02:00,2.9,
19-Feb-2024 03:00,2.6,
19-Feb-2024 04:00,4.1,
19-Feb-2024 05:00,4.3,
19-Feb-2024 06:00,5.2,
19-Feb-2024 07:00,2.4,
19-Feb-2024 08:00,3.3,
19-Feb-2024 09:00,3.2,
19-Feb-2024 10:00,1.4,
19-Feb-2024 11:00,0.3,
19-Feb-2024 12:00,2.7,
19-Feb-2024 13:00,3.5,
19-Feb-2024 14:00,2,
19-Feb-2024 15:00,6,
19-Feb-2024 16:00,7.2,
19-Feb-2024 17:00,6.7,
19-Feb-2024 18:00,5.5,
19-Feb-2024 19:00,6.8,
19-Feb-2024 20:00,3.8,
19-Feb-2024 21:00,4.5,
19-Feb-2024 22:00,5,
19-Feb-2024 23:00,4.1,
20-Feb-2024 00:00,3,
20-Feb-2024 01:00,3.4,
20-Feb-2024 02:00,3.4,
20-Feb-2024 03:00,2,
20-Feb-2024 04:00,3.5,
20-Feb-2024 05:00,5.3,
20-Feb-2024 06:00,6.1,
20-Feb-2024 07:00,4.5,
20-Feb-2024 08:00,3.7,
20-Feb-2024 09:00,,AX
20-Feb-2024 10:00,,AX
20-Feb-2024 11:00,,AX
20-Feb-2024 12:00,0.5,
20-Feb-2024 13:00,3,
20-Feb-2024 14:00,3,
20-Feb-2024 15:00,3.3,
20-Feb-2024 16:00,4.6,
20-Feb-2024 17:00,8.2,
20-Feb-2024 18:00,5,
20-Feb-2024 19:00,6.2,
20-Feb-2024 20:00,5,
20-Feb-2024 21:00,5.4,
20-Feb-2024 22:00,5.1,
20-Feb-2024 23:00,2.9,
21-Feb-2024 00:00,3.1,
21-Feb-2024 01:00,4.1,
21-Feb-2024 02:00,4.3,
21-Feb-2024 03:00,2.7,
21-Feb-2024 04:00,5,
21-Feb-2024 05:00,5.2,
21-Feb-2024 06:00,4.3,
21-Feb-2024 07:00,3,
21-Feb-2024 08:00,2.1,
21-Feb-2024 09:00,0.1,
21-Feb-2024 10:00,3,
21-Feb-2024 11:00,4.1,
21-Feb-2024 12:00,3.3,
21-Feb-2024 13:00,5.4,
21-Feb-2024 14:00,3.7,
21-Feb-2024 15:00,3.2,
21-Feb-2024 16:00,5.7,
21-Feb-2024 17:00,10.6,
21-Feb-2024 18:00,11.2,
21-Feb-2024 19:00,14.4,
21-Feb-2024 20:00,10.2,
21-Feb-2024 21:00,3.8,
21-Feb-2024 22:00,5.3,
21-Feb-2024 23:00,5.4,
22-Feb-2024 00:00,3.2,
22-Feb-2024 01:00,4.7,
22-Feb-2024 02:00,2.9,
22-Feb-2024 03:00,4.8,
22-Feb-2024 04:00,4.8,
22-Feb-2024 05:00,5.8,
22-Feb-2024 06:00,4.8,
22-Feb-2024 07:00,3.4,
22-Feb-2024 08:00,2.4,
22-Feb-2024 09:00,-0.2,
22-Feb-2024 10:00,0.5,
22-Feb-2024 11:00,2.4,
22-Feb-2024 12:00,1.1,
22-Feb-2024 13:00,3.3,
22-Feb-2024 14:00,5.1,
22-Feb-2024 15:00,6.4,
22-Feb-2024 16:00,7.2,
22-Feb-2024 17:00,17.5,
22-Feb-2024 18:00,13.1,
22-Feb-2024 19:00,9.1,
22-Feb-2024 20:00,9.8,
22-Feb-2024 21:00,7.2,
22-Feb-2024 22:00,4.2,
22-Feb-2024 23:00,11.6,
23-Feb-2024 00:00,2.6,
23-Feb-2024 01:00,6.9,
23-Feb-2024 02:00,2.8,
23-Feb-2024 03:00,3.6,
23-Feb-2024 04:00,3.4,
23-Feb-2024 05:00,3.4,
23-Feb-2024 06:00,5.6,
23-Feb-2024 07:00,3.7,
23-Feb-2024 08:00,3,
23-Feb-2024 09:00,2.8,
23-Feb-2024 10:00,1.3,
23-Feb-2024 11:00,0,
23-Feb-2024 12:00,1.7,
23-Feb-2024 13:00,2.9,
23-Feb-2024 14:00,4.3,
23-Feb-2024 15:00,2.5,
23-Feb-2024 16:00,3.6,
23-Feb-2024 17:00,8.4,
23-Feb-2024 18:00,9.4,
23-Feb-2024 19:00,9,
23-Feb-2024 20:00,5.1,
23-Feb-2024 21:00,5.3,
23-Feb-2024 22:00,5.3,
23-Feb-2024 23:00,5.7,
24-Feb-2024 00:00,1.5,
24-Feb-2024 01:00,4.1,
24-Feb-2024 02:00,4.9,
24-Feb-2024 03:00,2.6,
24-Feb-2024 04:00,5.7,
24-Feb-2024 05:00,4.1,
24-Feb-2024 06:00,4.2,
24-Feb-2024 07:00,7.3,
24-Feb-2024 08:00,1.9,
24-Feb-2024 09:00,2.3,
24-Feb-2024 10:00,-0.8,
24-Feb-2024 11:00,0.7,
24-Feb-2024 12:00,0,
24-Feb-2024 13:00,2.3,
24-Feb-2024 14:00,5,
24-Feb-2024 15:00,3.9,
24-Feb-2024 16:00,5.3,
24-Feb-2024 17:00,15.4,
24-Feb-2024 18:00,14.2,
24-Feb-2024 19:00,13.6,
24-Feb-2024 20:00,10.5,
24-Feb-2024 21:00,5.2,
24-Feb-2024 22:00,4.5,
24-Feb-2024 23:00,5,
25-Feb-2024 00:00,4.7,
25-Feb-2024 01:00,4.4,
25-Feb-2024 02:00,4.1,
25-Feb-2024 03:00,4.4,
25-Feb-2024 04:00,5.2,
25-Feb-2024 05:00,4,
25-Feb-2024 06:00,4.2,
25-Feb-2024 07:00,6.5,
25-Feb-2024 08:00,1.6,
25-Feb-2024 09:00,-1.3,
25-Feb-2024 10:00,0.6,
25-Feb-2024 11:00,4.2,
25-Feb-2024 12:00,6.7,
25-Feb-2024 13:00,6.7,
25-Feb-2024 14:00,6.8,
25-Feb-2024 15:00,8.2,
25-Feb-2024 16:00,8.2,
25-Feb-2024 17:00,10.8,
25-Feb-2024 18:00,13.4,
25-Feb-2024 19:00,12.7,
25-Feb-2024 20:00,9.7,
25-Feb-2024 21:00,8.9,
25-Feb-2024 22:00,6.7,
25-Feb-2024 23:00,3.4,
26-Feb-2024 00:00,5.5,
26-Feb-2024 01:00,4.8,
26-Feb-2024 02:00,4.7,
26-Feb-2024 03:00,5,
26-Feb-2024 04:00,6.2,
26-Feb-2024 05:00,6.9,
26-Feb-2024 06:00,5.4,
26-Feb-2024 07:00,11.8,
26-Feb-2024 08:00,0.9,
26-Feb-2024 09:00,4.3,
26-Feb-2024 10:00,5,
26-Feb-2024 11:00,4.4,
26-Feb-2024 12:00,4.8,
26-Feb-2024 13:00,17.7,
26-Feb-2024 14:00,9.4,
26-Feb-2024 15:00,20.3,
26-Feb-2024 16:00,2.4,
26-Feb-2024 17:00,6.8,
26-Feb-2024 18:00,4.7,
26-Feb-2024 19:00,6.2,
26-Feb-2024 20:00,4.1,
26-Feb-2024 21:00,9.5,
26-Feb-2024 22:00,13.3,
26-Feb-2024 23:00,12.6,
27-Feb-2024 00:00,8.4,
27-Feb-2024 01:00,5.7,
27-Feb-2024 02:00,4.5,
27-Feb-2024 03:00,5.4,
27-Feb-2024 04:00,8.8,
27-Feb-2024 05:00,16.3,
27-Feb-2024 06:00,13.6,
27-Feb-2024 07:00,5.3,
27-Feb-2024 08:00,1.5,
27-Feb-2024 09:00,5.4,
27-Feb-2024 10:00,6.6,
27-Feb-2024 11:00,7.9,
27-Feb-2024 12:00,12.3,
27-Feb-2024 13:00,13.4,
27-Feb-2024 14:00,15.7,
27-Feb-2024 15:00,17.1,
27-Feb-2024 16:00,18,
27-Feb-2024 17:00,23.1,
27-Feb-2024 18:00,22.9,
27-Feb-2024 19:00,20.3,
27-Feb-2024 20:00,19.3,
27-Feb-2024 21:00,12.8,
27-Feb-2024 22:00,11.8,
27-Feb-2024 23:00,11.5,
28-Feb-2024 00:00,11.8,
28-Feb-2024 01:00,13.1,
28-Feb-2024 02:00,9.2,
28-Feb-2024 03:00,10.6,
28-Feb-2024 04:00,11.4,
28-Feb-2024 05:00,16,
28-Feb-2024 06:00,18.1,
28-Feb-2024 07:00,11.5,
28-Feb-2024 08:00,4.9,
28-Feb-2024 09:00,10,
28-Feb-2024 10:00,15.9,
28-Feb-2024 11:00,18.1,
28-Feb-2024 12:00,22.2,
28-Feb-2024 13:00,21.5,
28-Feb-2024 14:00,24.1,
28-Feb-2024 15:00,22.8,
28-Feb-2024 16:00,25.1,
28-Feb-2024 17:00,31.5,
28-Feb-2024 18:00,27,
28-Feb-2024 19:00,25.3,
28-Feb-2024 20:00,20.7,
28-Feb-2024 21:00,17,
28-Feb-2024 22:00,15.8,
28-Feb-2024 23:00,30.2,
29-Feb-2024 00:00,22.9,
29-Feb-2024 01:00,11.7,
29-Feb-2024 02:00,12.3,
29-Feb-2024 03:00,12.7,
29-Feb-2024 04:00,11.1,
29-Feb-2024 05:00,13.8,
29-Feb-2024 06:00,12.9,
29-Feb-2024 07:00,9.3,
29-Feb-2024 08:00,-0.2,
29-Feb-2024 09:00,6.1,
29-Feb-2024 10:00,3.7,
29-Feb-2024 11:00,8.5,
29-Feb-2024 12:00,9.7,
29-Feb-2024 13:00,6.5,
29-Feb-2024 14:00,8,
29-Feb-2024 15:00,4.3,
29-Feb-2024 16:00,6.7,
29-Feb-2024 17:00,23.6,
29-Feb-2024 18:00,9.3,
29-Feb-2024 19:00,10.4,
29-Feb-2024 20:00,9.1,
29-Feb-2024 21:00,9.6,
29-Feb-2024 22:00,10.2,
29-Feb-2024 23:00,9.5,
